• En España
  • Lista de países
  • Para 7 días
  • Temperatura del agua
  • Mapa Satelital
  • El tiempo en el mapa
  • Informadores
  • user-avatar
    Iniciar sesión

    Tiempo cada hora Shkoder

    Hoy, 26 Febrero, Lunes

    Tiempo Temperatura Precipitaciones Viento Presión Humedad
    00:00 -5°C° 0,7 mm 6 mps 732 mmHg 85%
    01:00 -6°C° 0,7 mm 7 mps 731 mmHg 86%
    02:00 -5°C° 0,9 mm 6 mps 731 mmHg 86%
    03:00 -5°C° 0,9 mm 6 mps 731 mmHg 87%
    04:00 -5°C° 0,9 mm 6 mps 730 mmHg 87%
    05:00 -5°C° 0,6 mm 6 mps 730 mmHg 87%
    06:00 -5°C° 0,6 mm 6 mps 730 mmHg 87%
    07:00 -5°C° 0,6 mm 5 mps 730 mmHg 87%
    08:00 -5°C° 0,6 mm 5 mps 730 mmHg 87%
    09:00 -4°C° 0,6 mm 5 mps 730 mmHg 87%
    10:00 -3°C° 0,6 mm 4 mps 730 mmHg 87%
    11:00 -2°C° 0,4 mm 4 mps 729 mmHg 87%
    12:00 -1°C° 0,4 mm 4 mps 729 mmHg 87%
    13:00 -1°C° 0,4 mm 4 mps 728 mmHg 87%
    14:00 -1°C° 0,2 mm 4 mps 728 mmHg 86%
    15:00 0°C° 0,2 mm 3 mps 728 mmHg 86%
    16:00 0°C° 0,2 mm 3 mps 728 mmHg 86%
    17:00 0°C° 0,6 mm 3 mps 728 mmHg 88%
    18:00 -1°C° 0,6 mm 3 mps 728 mmHg 89%
    19:00 -2°C° 0,6 mm 3 mps 728 mmHg 91%
    20:00 -2°C° 0,5 mm 3 mps 728 mmHg 92%
    21:00 -2°C° 0,5 mm 3 mps 729 mmHg 92%
    22:00 -2°C° 0,5 mm 2 mps 729 mmHg 92%
    23:00 -2°C° 0,4 mm 2 mps 729 mmHg 92%

    Mañana, 27 Febrero, Martes

    Tiempo Temperatura Precipitaciones Viento Presión Humedad
    00:00 -2°C° 0,4 mm 2 mps 729 mmHg 92%
    01:00 0°C° 0,4 mm 1 mps 729 mmHg 92%
    02:00 0°C° 0,3 mm 1 mps 729 mmHg 92%
    03:00 0°C° 0,3 mm 1 mps 730 mmHg 93%
    04:00 0°C° 0,3 mm 1 mps 730 mmHg 94%
    05:00 0°C° 0,3 mm 1 mps 730 mmHg 94%
    06:00 0°C° 0,3 mm 1 mps 730 mmHg 94%
    07:00 -2°C° 0,3 mm 2 mps 731 mmHg 94%
    08:00 -1°C° 0,7 mm 2 mps 731 mmHg 94%
    09:00 0°C° 0,7 mm 3 mps 731 mmHg 95%
    10:00 0°C° 0,7 mm 3 mps 732 mmHg 95%
    11:00 +1°C° 0,5 mm 3 mps 732 mmHg 93%
    12:00 0°C° 0,5 mm 4 mps 732 mmHg 90%
    13:00 0°C° 0,5 mm 4 mps 732 mmHg 88%
    14:00 0°C° 0,2 mm 4 mps 732 mmHg 86%
    15:00 +1°C° 0,2 mm 3 mps 733 mmHg 84%
    16:00 +2°C° 0,2 mm 2 mps 733 mmHg 83%
    17:00 +1°C° 0 mm 2 mps 733 mmHg 85%
    18:00 -1°C° 0 mm 2 mps 734 mmHg 87%
    19:00 -3°C° 0 mm 2 mps 734 mmHg 89%
    20:00 -3°C° 0,1 mm 2 mps 734 mmHg 88%
    21:00 -3°C° 0,1 mm 2 mps 735 mmHg 88%
    22:00 -3°C° 0,1 mm 2 mps 735 mmHg 87%
    23:00 -3°C° 0,1 mm 2 mps 735 mmHg 86%

    Pasado mañana, 28 Febrero, Miércoles

    Tiempo Temperatura Precipitaciones Viento Presión Humedad
    00:00 -3°C° 0,1 mm 2 mps 735 mmHg 85%
    01:00 -3°C° 0,1 mm 2 mps 735 mmHg 84%
    02:00 -4°C° 0,1 mm 3 mps 734 mmHg 84%
    03:00 -4°C° 0,1 mm 3 mps 734 mmHg 84%
    04:00 -5°C° 0,1 mm 3 mps 734 mmHg 84%
    05:00 -4°C° 0,2 mm 3 mps 734 mmHg 85%
    06:00 -4°C° 0,2 mm 3 mps 734 mmHg 85%
    07:00 -4°C° 0,2 mm 3 mps 735 mmHg 86%
    08:00 -2°C° 0,2 mm 3 mps 735 mmHg 84%
    09:00 -1°C° 0,2 mm 3 mps 735 mmHg 83%
    10:00 0°C° 0,2 mm 3 mps 735 mmHg 81%
    11:00 +1°C° 0,1 mm 3 mps 736 mmHg 80%
    12:00 +1°C° 0,1 mm 3 mps 736 mmHg 78%
    13:00 +2°C° 0,1 mm 3 mps 736 mmHg 77%
    14:00 +2°C° 0,1 mm 3 mps 737 mmHg 76%
    15:00 +2°C° 0,1 mm 3 mps 737 mmHg 75%
    16:00 +2°C° 0,1 mm 3 mps 738 mmHg 74%
    17:00 0°C° 0,1 mm 3 mps 739 mmHg 76%
    18:00 -1°C° 0,1 mm 2 mps 740 mmHg 79%
    19:00 -3°C° 0,1 mm 2 mps 740 mmHg 81%
    20:00 -3°C° 0 mm 2 mps 741 mmHg 82%
    21:00 -4°C° 0 mm 2 mps 742 mmHg 83%
    22:00 -4°C° 0 mm 2 mps 743 mmHg 85%
    23:00 -5°C° 0 mm 2 mps 743 mmHg 84%

    1 Marzo, Jueves

    Tiempo Temperatura Precipitaciones Viento Presión Humedad
    00:00 -5°C° 0 mm 2 mps 743 mmHg 83%
    01:00 -6°C° 0 mm 2 mps 743 mmHg 83%
    02:00 -6°C° 0 mm 2 mps 742 mmHg 80%
    03:00 -6°C° 0 mm 2 mps 742 mmHg 78%
    04:00 -6°C° 0 mm 2 mps 742 mmHg 75%
    05:00 -5°C° 0 mm 2 mps 742 mmHg 74%
    06:00 -4°C° 0 mm 2 mps 742 mmHg 74%
    07:00 -4°C° 0 mm 2 mps 742 mmHg 73%
    08:00 -2°C° 0 mm 2 mps 742 mmHg 71%
    09:00 +1°C° 0 mm 2 mps 741 mmHg 69%
    10:00 +3°C° 0 mm 2 mps 741 mmHg 67%
    11:00 +3°C° 0,1 mm 2 mps 741 mmHg 70%
    12:00 +4°C° 0,1 mm 2 mps 740 mmHg 74%
    13:00 +4°C° 0,1 mm 2 mps 740 mmHg 77%
    14:00 +4°C° 0,2 mm 2 mps 739 mmHg 79%
    15:00 +4°C° 0,2 mm 2 mps 739 mmHg 81%
    16:00 +4°C° 0,2 mm 2 mps 739 mmHg 83%
    17:00 +3°C° 0,2 mm 2 mps 739 mmHg 85%
    18:00 +3°C° 0,2 mm 2 mps 738 mmHg 86%
    19:00 +3°C° 0,2 mm 2 mps 738 mmHg 88%
    20:00 +3°C° 0,3 mm 2 mps 738 mmHg 88%
    21:00 +4°C° 0,3 mm 2 mps 738 mmHg 89%
    22:00 +4°C° 0,3 mm 2 mps 737 mmHg 90%
    23:00 +5°C° 0,4 mm 2 mps 737 mmHg 91%

    2 Marzo, Viernes

    Tiempo Temperatura Precipitaciones Viento Presión Humedad
    00:00 +5°C° 0,4 mm 2 mps 736 mmHg 92%
    01:00 +5°C° 0,4 mm 2 mps 736 mmHg 93%
    02:00 +5°C° 1 mm 2 mps 735 mmHg 94%
    03:00 +5°C° 1 mm 2 mps 735 mmHg 95%
    04:00 +6°C° 1 mm 2 mps 734 mmHg 95%
    05:00 +6°C° 1,4 mm 2 mps 734 mmHg 95%
    06:00 +5°C° 1,4 mm 3 mps 734 mmHg 96%
    07:00 +5°C° 1,4 mm 3 mps 733 mmHg 96%
    08:00 +5°C° 1,1 mm 3 mps 733 mmHg 95%
    09:00 +7°C° 1,1 mm 3 mps 733 mmHg 95%
    10:00 +7°C° 1,1 mm 3 mps 733 mmHg 94%
    11:00 +7°C° 1,3 mm 3 mps 733 mmHg 94%
    12:00 +7°C° 1,3 mm 3 mps 732 mmHg 94%
    13:00 +8°C° 1,3 mm 2 mps 732 mmHg 94%
    14:00 +7°C° 1,5 mm 2 mps 732 mmHg 94%
    15:00 +7°C° 1,5 mm 2 mps 732 mmHg 95%
    16:00 +7°C° 1,5 mm 2 mps 732 mmHg 95%
    17:00 +7°C° 1,2 mm 2 mps 732 mmHg 95%
    18:00 +7°C° 1,2 mm 2 mps 732 mmHg 95%
    19:00 +7°C° 1,2 mm 2 mps 732 mmHg 95%
    20:00 +7°C° 1,1 mm 2 mps 732 mmHg 95%
    21:00 +7°C° 1,1 mm 2 mps 732 mmHg 95%
    22:00 +7°C° 1,1 mm 2 mps 733 mmHg 95%
    23:00 +7°C° 0,8 mm 2 mps 732 mmHg 95%

    3 Marzo, Sábado

    Tiempo Temperatura Precipitaciones Viento Presión Humedad
    00:00 +7°C° 0,8 mm 2 mps 732 mmHg 95%
    01:00 +8°C° 0,8 mm 2 mps 732 mmHg 95%
    02:00 +8°C° 0,7 mm 2 mps 732 mmHg 94%
    03:00 +8°C° 0,7 mm 2 mps 732 mmHg 94%
    04:00 +8°C° 0,7 mm 2 mps 732 mmHg 94%
    05:00 +8°C° 0,7 mm 2 mps 732 mmHg 94%
    06:00 +8°C° 0,7 mm 2 mps 732 mmHg 95%
    07:00 +8°C° 0,7 mm 2 mps 732 mmHg 95%
    08:00 +8°C° 0,7 mm 2 mps 732 mmHg 95%
    09:00 +9°C° 0,7 mm 2 mps 732 mmHg 94%
    10:00 +9°C° 0,7 mm 2 mps 732 mmHg 93%
    11:00 +9°C° 1,3 mm 2 mps 732 mmHg 94%
    12:00 +9°C° 1,3 mm 2 mps 731 mmHg 94%
    13:00 +9°C° 1,3 mm 2 mps 731 mmHg 95%
    14:00 +9°C° 2,1 mm 2 mps 731 mmHg 95%
    15:00 +9°C° 2,1 mm 2 mps 731 mmHg 96%
    16:00 +8°C° 2,1 mm 2 mps 731 mmHg 96%
    17:00 +8°C° 0,6 mm 2 mps 731 mmHg 96%
    18:00 +8°C° 0,6 mm 2 mps 732 mmHg 97%
    19:00 +8°C° 0,6 mm 2 mps 732 mmHg 97%
    20:00 +8°C° 0,1 mm 2 mps 732 mmHg 97%
    21:00 +8°C° 0,1 mm 2 mps 732 mmHg 97%
    22:00 +8°C° 0,1 mm 2 mps 733 mmHg 97%
    23:00 +8°C° 0,1 mm 2 mps 733 mmHg 97%
    Mostrar más